Content
SEND FEEDBACK

Daily
Averages
Monthly
Summary
United States of America

LAKE CITY, KENTUCKY


Home > North America > United States > Kentucky
Elevation: 349 feet     Latitude: 37 00N     Longitude: 088 17W

WEATHER
 
SELECT A DAY
Number of Records: 89,139;   Date Range: 11/9/10 - 9/29/14
 
SHARE

PRINT THIS DATA

[ ← Previous Day ]
WEATHER ALMANAC - FEBRUARY 13, 2013
[ Next Day → ]
[ °C ]   °F
Weather ElementAverageHighLow
Temperature38.4 °F42.8 °F (2:35 pm)35.6 °F (5:55 am)
Dewpoint34.1 °F35.6 °F (2:55 am)32 °F (12:35 am)
Humidity85.1 %93 % (4:15 am)70 % (12:35 am)
Barometer29.90 in29.98 in (11:35 pm)29.80 in (4:15 am)
Wind Speed8.7 mph17.3 mph (4:15 am)
Wind Gust27.6 mph (4:15 am)
Weather ElementAverage
Visibility8.8 mi
Wind DirectionSSW (209.1 °)

Weather ElementTotal
Precipitation0.14 in
Heating Degree Days25.8 (Base 65)
Averaged from 69 records on February 13, 2013
WEATHER CONDITIONS BREAKOUT
WIND DIRECTION BREAKOUT
WEATHER BY HOUR - FEBRUARY 13, 2013
[ °C ]   °F
Local TimeTemperatureDewpointHumidityBarometerVisibilityWind DirectionWind SpeedGust SpeedPrecipitationEventsConditions
12:35 AM41.0 °F32.0 °F70 %29.83 in10.0 miNE (40°)6.9 mphOvercast
12:55 AM41.0 °F32.0 °F70 %29.83 in10.0 miNNE (30°)10.4 mphOvercast
1:15 AM41.0 °F32.0 °F70 %29.82 in10.0 miNNE (30°)12.7 mphOvercast
1:35 AM41.0 °F32.0 °F70 %29.82 in10.0 miNNE (30°)6.9 mphOvercast
1:55 AM41.0 °F32.0 °F70 %29.81 in10.0 miNorth (360°)6.9 mphOvercast
2:15 AM39.2 °F33.8 °F81 %29.82 in9.0 miNorth (10°)6.9 mphOvercast
2:35 AM41.0 °F33.8 °F76 %29.82 in9.0 miCalm0.01 inOvercast
2:55 AM39.2 °F35.6 °F87 %29.82 in10.0 miNNW (340°)6.9 mph0.01 inOvercast
3:15 AM39.2 °F35.6 °F87 %29.82 in5.0 miNorth (350°)9.2 mph0.01 inOvercast
3:35 AM39.2 °F35.6 °F87 %29.82 in7.0 miNorth (360°)10.4 mph0.02 inOvercast
3:55 AM39.2 °F35.6 °F87 %29.82 in8.0 miNorth (10°)12.7 mph18.4 mph0.03 inOvercast
4:15 AM37.4 °F35.6 °F93 %29.80 in5.0 miNorth (10°)17.3 mph27.6 mph0.01 inOvercast
4:35 AM37.4 °F35.6 °F93 %29.80 in6.0 miNNE (20°)16.1 mph20.7 mph0.01 inOvercast
4:55 AM37.4 °F35.6 °F93 %29.80 in10.0 miNorth (10°)15.0 mph23.0 mph0.01 inOvercast
5:15 AM37.4 °F33.8 °F87 %29.80 in10.0 miNorth (10°)15.0 mphOvercast
5:35 AM37.4 °F33.8 °F87 %29.81 in9.0 miNNE (20°)16.1 mph24.2 mphOvercast
5:55 AM35.6 °F33.8 °F93 %29.82 in8.0 miNorth (10°)12.7 mph23.0 mphOvercast
6:15 AM35.6 °F33.8 °F93 %29.83 in6.0 miNorth (360°)11.5 mph17.3 mphOvercast
6:35 AM35.6 °F33.8 °F93 %29.85 in3.0 miNorth (350°)10.4 mph0.01 inOvercast
6:55 AM35.6 °F33.8 °F93 %29.85 in3.0 miNorth (350°)9.2 mph0.01 inOvercast
7:15 AM35.6 °F33.8 °F93 %29.86 in2.5 miNorth (360°)9.2 mphMostly Cloudy
7:35 AM35.6 °F33.8 °F93 %29.86 in5.0 miNorth (360°)10.4 mphMostly Cloudy
7:55 AM35.6 °F33.8 °F93 %29.88 in5.0 miNorth (360°)11.5 mphMostly Cloudy
8:15 AM35.6 °F33.8 °F93 %29.88 in5.0 miNNE (20°)10.4 mphMostly Cloudy
8:35 AM35.6 °F33.8 °F93 %29.88 in7.0 miNNE (20°)10.4 mphMostly Cloudy
8:55 AM37.4 °F35.6 °F93 %29.89 in8.0 miNorth (10°)9.2 mphOvercast
9:15 AM37.4 °F35.6 °F93 %29.90 in10.0 miNorth (360°)9.2 mphOvercast
9:35 AM37.4 °F35.6 °F93 %29.91 in7.0 miNorth (350°)11.5 mphOvercast
9:55 AM37.4 °F35.6 °F93 %29.92 in9.0 miNorth (350°)10.4 mph0.01 inMostly Cloudy
10:15 AM37.4 °F35.6 °F93 %29.93 in10.0 miNorth (350°)13.8 mph18.4 mphOvercast
10:55 AM37.4 °F33.8 °F87 %29.95 in9.0 miNorth (350°)12.7 mphOvercast
11:15 AM37.4 °F33.8 °F87 %29.95 in6.0 miNNW (340°)10.4 mphMostly Cloudy
11:35 AM37.4 °F33.8 °F87 %29.95 in8.0 miNNW (340°)8.1 mphMostly Cloudy
11:55 AM37.4 °F33.8 °F87 %29.95 in10.0 miNW (320°)5.8 mphOvercast
12:15 PM37.4 °F35.6 °F93 %29.94 in10.0 miNNW (340°)4.6 mphOvercast
12:35 PM39.2 °F33.8 °F81 %29.93 in10.0 miCalmOvercast
12:55 PM39.2 °F35.6 °F87 %29.93 in10.0 miWest (260°)4.6 mphOvercast
1:15 PM39.2 °F35.6 °F87 %29.93 in10.0 miNW (320°)4.6 mphOvercast
1:35 PM39.2 °F33.8 °F81 %29.92 in10.0 miNW (310°)5.8 mphOvercast
1:55 PM41.0 °F35.6 °F81 %29.92 in10.0 miWest (260°)6.9 mphOvercast
2:15 PM41.0 °F35.6 °F81 %29.92 in10.0 miSW (220°)6.9 mphOvercast
2:35 PM42.8 °F33.8 °F70 %29.91 in10.0 miSW (230°)5.8 mphMostly Cloudy
2:55 PM42.8 °F35.6 °F76 %29.92 in10.0 miWSW (240°)5.8 mphMostly Cloudy
3:15 PM41.0 °F33.8 °F76 %29.92 in10.0 miWSW (240°)11.5 mphOvercast
3:35 PM42.8 °F33.8 °F70 %29.92 in10.0 miSW (230°)6.9 mphMostly Cloudy
3:55 PM42.8 °F33.8 °F70 %29.92 in10.0 miWest (260°)5.8 mphPartly Cloudy
4:15 PM41.0 °F33.8 °F76 %29.92 in10.0 miWSW (240°)8.1 mphScattered Clouds
4:35 PM41.0 °F33.8 °F76 %29.93 in10.0 miSW (220°)6.9 mphMostly Cloudy
4:55 PM41.0 °F33.8 °F76 %29.93 in10.0 miSW (220°)5.8 mphMostly Cloudy
5:15 PM39.2 °F33.8 °F81 %29.93 in10.0 miSW (220°)5.8 mphScattered Clouds
5:35 PM39.2 °F33.8 °F81 %29.94 in10.0 miSW (230°)6.9 mphMostly Cloudy
5:55 PM39.2 °F33.8 °F81 %29.94 in10.0 miSSW (210°)4.6 mphMostly Cloudy
6:15 PM39.2 °F33.8 °F81 %29.94 in10.0 miSSW (210°)5.8 mphPartly Cloudy
6:35 PM37.4 °F33.8 °F87 %29.94 in10.0 miSSW (210°)5.8 mphClear
6:55 PM37.4 °F33.8 °F87 %29.95 in10.0 miSouth (190°)5.8 mphClear
7:15 PM37.4 °F33.8 °F87 %29.95 in10.0 miSSW (210°)5.8 mphClear
7:35 PM37.4 °F33.8 °F87 %29.95 in10.0 miSSW (210°)5.8 mphClear
7:55 PM37.4 °F33.8 °F87 %29.96 in10.0 miSSW (210°)6.9 mphClear
8:15 PM37.4 °F33.8 °F87 %29.96 in10.0 miSSW (210°)6.9 mphClear
8:55 PM37.4 °F33.8 °F87 %29.96 in10.0 miSSW (210°)9.2 mphClear
9:15 PM37.4 °F33.8 °F87 %29.96 in10.0 miSSW (210°)9.2 mphClear
9:35 PM37.4 °F33.8 °F87 %29.97 in10.0 miSW (220°)9.2 mphClear
9:55 PM37.4 °F33.8 °F87 %29.97 in10.0 miSW (220°)9.2 mphClear
10:15 PM37.4 °F33.8 °F87 %29.97 in10.0 miSW (220°)9.2 mph17.3 mphClear
10:35 PM37.4 °F33.8 °F87 %29.97 in10.0 miSSW (210°)8.1 mph18.4 mphClear
10:55 PM37.4 °F33.8 °F87 %29.97 in10.0 miSSW (210°)9.2 mph16.1 mphClear
11:15 PM35.6 °F33.8 °F93 %29.97 in10.0 miSSW (210°)9.2 mph16.1 mphClear
11:35 PM35.6 °F33.8 °F93 %29.98 in10.0 miSW (220°)9.2 mphClear
11:55 PM35.6 °F33.8 °F93 %29.98 in10.0 miSSW (210°)9.2 mph18.4 mphClear
Hourly data recorded from KCEY, located miles away from Lake City, Kentucky







STORIES FROM OUR PARTNERS